カタログに戻る

STARLINK-36609

運用中通信SSO
NORAD 67582·PAYLOAD·🇺🇸 United States

打ち上げ Jan 25, 2026 から Vandenberg Space Force Base

Loading…

次のパス (今後24時間)

TLE

最新Source: CelesTrak SupGP

元期: Sep 15, 2026, 04:08 UTC

1 67582C 26016X   26258.17270833  .00019565  00000+0  60756-3 0  2587
2 67582  97.2849 316.8847 0000946  75.8139 232.0858 15.33417994    13

AllMySatでSTARLINK-36609をリアルタイム追跡

Download on the App Store